Weather History for Howell, MI

Change the Weather History Date:

Saturday, February 18, 2012

  Actual Average Record
Temperature  
Mean Temperature 33 °F -  
Max Temperature 39 °F 34 °F 57 °F (1997)
Min Temperature 27 °F 20 °F 1 °F (2006)
Degree Days  
Heating Degree Days 32    
Moisture  
Dew Point 24 °F    
Average Humidity 70    
Maximum Humidity 85    
Minimum Humidity 53    
Precipitation  
Precipitation 0.00 in - - ()
Sea Level Pressure  
Sea Level Pressure 30.03 in    
Wind  
Wind Speed 11 mph (WNW)    
Max Wind Speed 21 mph    
Max Gust Speed 28 mph    
Visibility 9 miles    
Events Rain    
Averages and records for this station are not official NWS values.
T = Trace of Precipitation, MM = Missing Value Source: NWS Daily Summary

Daily Weather History Graph

Daily Weather History Graph

Search for Another Location

Airport:

Trip Planner

Search our weather history database for the weather conditions in past years. The results will help you decide how hot, cold, wet, or windy it might be!

Date:

Astronomy

Feb. 18, 2012 Rise Set
Actual Time 7:29 AM EST 6:11 PM EST
Civil Twilight 7:00 AM EST 6:39 PM EST
Nautical Twilight 6:27 AM EST 7:12 PM EST
Astronomical Twilight 5:54 AM EST 7:45 PM EST
Moon 5:11 AM EST (2/18) 3:03 PM EST (2/18)
Length of Visible Light 11h 39m
Length of Day
10h 41m
Waning Crescent, 11% of the Moon is Illuminated
Feb 18
Waning Crescent
Feb 21
New
Feb 29
First Quarter
Mar 8
Full
Mar 14
Last Quarter

Hourly Weather History & Observations

Time (EST) Temp. Windchill Dew Point Humidity Pressure Visibility Wind Dir Wind Speed Gust Speed Precip Events Conditions
12:34 AM 38.8 °F 31.6 °F 30.2 °F 71% 29.90 in 10.0 mi SW 11.5 mph 18.4 mph N/A   Overcast
12:54 AM 39.2 °F 32.5 °F 33.1 °F 79% 29.90 in 7.0 mi SW 10.4 mph 27.6 mph N/A Rain Light Rain
1:14 AM 38.3 °F 31.9 °F 32.7 °F 80% 29.90 in 10.0 mi SW 9.2 mph - N/A   Mostly Cloudy
1:35 AM 37.9 °F 32.7 °F 32.0 °F 79% 29.90 in 10.0 mi SW 6.9 mph - N/A   Scattered Clouds
1:54 AM 37.6 °F 31.6 °F 32.0 °F 80% 29.89 in 10.0 mi SW 8.1 mph - N/A   Scattered Clouds
2:14 AM 37.0 °F 31.0 °F 31.8 °F 81% 29.89 in 10.0 mi WSW 8.1 mph - N/A   Clear
2:35 AM 37.4 °F 31.4 °F 32.0 °F 81% 29.89 in 10.0 mi WSW 8.1 mph - N/A   Clear
2:54 AM 37.4 °F 29.3 °F 32.0 °F 81% 29.90 in 10.0 mi WSW 12.7 mph 16.1 mph N/A   Scattered Clouds
3:15 AM 36.7 °F 29.4 °F 32.0 °F 83% 29.89 in 10.0 mi West 10.4 mph - N/A   Clear
3:34 AM 36.1 °F 28.7 °F 31.6 °F 84% 29.90 in 10.0 mi West 10.4 mph - N/A   Clear
3:54 AM 35.8 °F 29.4 °F 31.6 °F 85% 29.90 in 7.0 mi West 8.1 mph - N/A   Clear
4:15 AM 35.6 °F 28.0 °F 31.1 °F 84% 29.91 in 7.0 mi West 10.4 mph - N/A   Scattered Clouds
4:34 AM 35.1 °F 28.6 °F 31.1 °F 85% 29.90 in 7.0 mi West 8.1 mph - N/A   Mostly Cloudy
4:55 AM 36.0 °F 29.0 °F 31.5 °F 84% 29.91 in 7.0 mi West 9.2 mph - N/A   Overcast
5:14 AM 36.0 °F 26.7 °F 31.6 °F 84% 29.91 in 7.0 mi West 15.0 mph 21.9 mph N/A   Mostly Cloudy
5:34 AM 35.8 °F 27.3 °F 31.1 °F 83% 29.91 in 7.0 mi West 12.7 mph - N/A   Mostly Cloudy
5:55 AM 35.1 °F 25.9 °F 30.2 °F 82% 29.91 in 7.0 mi West 13.8 mph 18.4 mph N/A   Mostly Cloudy
6:14 AM 34.7 °F 26.9 °F 30.0 °F 83% 29.91 in 7.0 mi West 10.4 mph - N/A   Mostly Cloudy
6:34 AM 34.2 °F 26.2 °F 29.5 °F 83% 29.91 in 7.0 mi West 10.4 mph - N/A   Scattered Clouds
6:55 AM 33.8 °F 25.8 °F 29.8 °F 85% 29.92 in 7.0 mi West 10.4 mph - N/A   Mostly Cloudy
7:14 AM 34.2 °F 25.7 °F 30.2 °F 85% 29.92 in 7.0 mi West 11.5 mph - N/A   Overcast
7:34 AM 34.2 °F 27.5 °F 30.0 °F 85% 29.93 in 7.0 mi West 8.1 mph 16.1 mph N/A   Mostly Cloudy
7:55 AM 34.0 °F 23.8 °F 29.5 °F 84% 29.94 in 7.0 mi West 16.1 mph 23.0 mph N/A   Mostly Cloudy
8:14 AM 33.6 °F 23.7 °F 28.2 °F 81% 29.95 in 10.0 mi WNW 15.0 mph 24.2 mph N/A   Mostly Cloudy
8:34 AM 33.3 °F 22.5 °F 27.5 °F 79% 29.96 in 10.0 mi WNW 17.3 mph 21.9 mph N/A   Overcast
8:55 AM 33.1 °F 21.5 °F 27.1 °F 79% 29.98 in 10.0 mi WNW 19.6 mph 25.3 mph N/A   Overcast
9:14 AM 32.9 °F 22.8 °F 27.0 °F 79% 29.98 in 10.0 mi WNW 15.0 mph 26.5 mph N/A   Overcast
9:35 AM 32.0 °F 20.8 °F 23.5 °F 71% 30.00 in 10.0 mi NW 17.3 mph 26.5 mph N/A   Overcast
10:14 AM 32.0 °F 22.1 °F 23.5 °F 71% 30.02 in 10.0 mi WNW 13.8 mph 26.5 mph N/A   Overcast
10:35 AM 32.5 °F 22.3 °F 23.7 °F 70% 30.03 in 10.0 mi NW 15.0 mph 19.6 mph N/A   Mostly Cloudy
10:54 AM 32.2 °F 20.0 °F 22.1 °F 66% 30.04 in 10.0 mi NW 20.7 mph 27.6 mph N/A   Mostly Cloudy
11:14 AM 32.0 °F 20.8 °F 21.4 °F 65% 30.05 in 10.0 mi NNW 17.3 mph 26.5 mph N/A   Mostly Cloudy
11:34 AM 32.0 °F 20.1 °F 20.3 °F 62% 30.06 in 10.0 mi NW 19.6 mph 25.3 mph N/A   Scattered Clouds
11:54 AM 32.4 °F 20.6 °F 19.6 °F 59% 30.07 in 10.0 mi NNW 19.6 mph 26.5 mph N/A   Mostly Cloudy
12:15 PM 32.0 °F 22.5 °F 20.7 °F 63% 30.08 in 10.0 mi NW 12.7 mph 17.3 mph N/A   Overcast
12:34 PM 31.6 °F 22.1 °F 23.2 °F 71% 30.08 in 10.0 mi NW 12.7 mph 20.7 mph N/A   Overcast
12:54 PM 31.5 °F 20.5 °F 21.9 °F 68% 30.08 in 10.0 mi NW 16.1 mph 20.7 mph N/A   Overcast
1:15 PM 32.0 °F 23.6 °F 20.1 °F 62% 30.08 in 10.0 mi NNW 10.4 mph - N/A   Overcast
1:34 PM 31.8 °F 21.8 °F 19.9 °F 62% 30.08 in 10.0 mi NW 13.8 mph 19.6 mph N/A   Overcast
1:54 PM 31.6 °F 22.1 °F 20.3 °F 63% 30.09 in 10.0 mi NW 12.7 mph 18.4 mph N/A   Overcast
2:14 PM 32.0 °F 23.0 °F 19.8 °F 61% 30.10 in 10.0 mi NNW 11.5 mph 17.3 mph N/A   Overcast
2:34 PM 32.0 °F 22.5 °F 20.7 °F 63% 30.10 in 10.0 mi NW 12.7 mph 16.1 mph N/A   Overcast
2:55 PM 32.2 °F 22.3 °F 18.9 °F 58% 30.09 in 10.0 mi WNW 13.8 mph 18.4 mph N/A   Overcast
3:14 PM 32.0 °F 22.1 °F 18.7 °F 58% 30.09 in 10.0 mi NW 13.8 mph 18.4 mph N/A   Overcast
3:34 PM 32.0 °F 22.1 °F 17.2 °F 55% 30.10 in 10.0 mi NNW 13.8 mph 17.3 mph N/A   Overcast
3:55 PM 33.8 °F 24.3 °F 18.3 °F 53% 30.10 in 10.0 mi NW 13.8 mph 23.0 mph N/A   Overcast
4:14 PM 33.3 °F 25.1 °F 18.3 °F 54% 30.11 in 10.0 mi NNW 10.4 mph 16.1 mph N/A   Overcast
4:35 PM 32.9 °F 25.3 °F 17.4 °F 53% 30.12 in 10.0 mi NNW 9.2 mph 18.4 mph N/A   Scattered Clouds
4:55 PM 32.2 °F 26.7 °F 17.2 °F 54% 30.13 in 10.0 mi NNW 5.8 mph - N/A   Clear
5:14 PM 32.2 °F 24.4 °F 16.7 °F 53% 30.14 in 10.0 mi NNW 9.2 mph - N/A   Clear
5:35 PM 32.0 °F 23.6 °F 18.3 °F 57% 30.15 in 10.0 mi NW 10.4 mph - N/A   Mostly Cloudy
5:54 PM 31.6 °F 26.0 °F 17.2 °F 55% 30.15 in 10.0 mi North 5.8 mph - N/A   Scattered Clouds
6:14 PM 30.9 °F 25.2 °F 17.6 °F 58% 30.15 in 10.0 mi NNW 5.8 mph - N/A   Scattered Clouds
6:35 PM 30.4 °F 24.5 °F 18.3 °F 61% 30.16 in 10.0 mi NNW 5.8 mph - N/A   Overcast
6:54 PM 29.8 °F 26.3 °F 17.6 °F 60% 30.16 in 10.0 mi NNW 3.5 mph - N/A   Scattered Clouds
7:14 PM 29.1 °F - 17.4 °F 62% 30.18 in 10.0 mi Calm Calm - N/A   Scattered Clouds
7:35 PM 28.4 °F - 17.8 °F 64% 30.18 in 10.0 mi Calm Calm - N/A   Mostly Cloudy
8:15 PM 29.1 °F - 18.1 °F 64% 30.19 in 10.0 mi Calm Calm - N/A   Mostly Cloudy
8:34 PM 28.2 °F - 18.0 °F 65% 30.18 in 10.0 mi Calm Calm - N/A   Overcast
8:54 PM 28.4 °F - 17.6 °F 64% 30.18 in 10.0 mi Calm Calm - N/A   Mostly Cloudy
9:15 PM 27.9 °F - 17.6 °F 65% 30.19 in 10.0 mi Calm Calm - N/A   Scattered Clouds
9:34 PM 27.5 °F - 17.2 °F 65% 30.20 in 10.0 mi Calm Calm - N/A   Clear
9:55 PM 27.3 °F - 17.2 °F 66% 30.20 in 10.0 mi Calm Calm - N/A   Clear
10:14 PM 26.2 °F - 17.2 °F 69% 30.19 in 10.0 mi Calm Calm - N/A   Clear
10:34 PM 26.4 °F 22.4 °F 17.1 °F 68% 30.18 in 10.0 mi North 3.5 mph - N/A   Clear
11:15 PM 25.7 °F - 16.7 °F 69% 30.19 in 10.0 mi Calm Calm - N/A   Clear
11:34 PM 24.1 °F - 16.9 °F 74% 30.19 in 10.0 mi Calm Calm - N/A   Clear
11:55 PM 24.8 °F - 16.7 °F 71% 30.18 in 10.0 mi Calm Calm - N/A   Clear